Theta_e
317 317 319 317 318 317 316 315 314 314 314 314 314 314 315 315 316 316 317 317 317 316 315 315 315 317 310 300 299 314 318 315 316 317 311 304 299 298 297 299 296 292 293 296 296 297 296
317 316 317 318 317 317 316 316 314 314 314 314 314 314 314 314 315 315 316 316 317 315 314 314 316 314 305 293 311 314 313 310 314 312 308 306 299 301 299 298 294 294 293 294 295 294 295
316 315 316 317 317 316 316 316 314 314 313 313 314 314 314 315 315 315 316 315 316 315 313 316 315 310 301 298 312 313 312 308 312 311 306 306 301 299 298 295 295 294 290 292 293 294 294
315 315 315 316 316 316 315 313 315 313 313 313 313 313 313 314 315 315 315 314 315 315 315 315 315 308 297 311 313 310 310 307 312 313 310 309 304 299 297 295 293 289 288 286 290 293 293
312 314 314 315 315 316 316 314 314 314 313 313 313 313 313 314 314 315 315 314 314 313 313 312 303 303 295 309 305 309 308 304 308 310 310 310 303 295 294 288 284 285 279 282 287 292 292
312 313 313 314 314 315 315 314 314 314 314 314 313 312 313 314 314 315 316 316 313 310 308 307 306 293 300 298 304 306 307 307 305 305 302 301 294 288 287 286 281 280 280 283 284 288 290
311 312 312 312 312 314 314 314 313 313 313 314 315 314 313 313 314 315 307 303 296 295 300 296 296 296 300 304 306 302 305 305 303 300 293 297 289 283 286 288 288 287 284 283 285 289 288
312 311 312 312 312 312 312 312 312 312 313 313 313 314 314 314 313 313 304 297 298 299 292 299 299 300 303 303 296 299 305 299 297 291 294 292 285 288 291 291 289 286 284 282 286 289 287
311 312 311 311 311 311 311 312 312 312 312 311 311 312 314 314 312 303 299 301 306 303 291 294 298 297 298 302 297 297 303 299 295 292 290 287 289 292 291 288 287 284 284 283 283 287 287
313 312 311 311 311 311 311 311 311 312 311 311 311 311 313 313 302 299 298 304 306 305 277 287 293 297 300 301 294 303 304 300 296 292 291 290 291 289 288 287 287 283 288 288 286 282 279
314 312 312 311 311 311 311 311 311 311 312 311 311 310 313 311 297 297 301 303 303 298 267 290 293 304 301 295 295 296 305 300 293 293 290 287 288 288 287 288 289 285 290 287 285 281 279
314 312 313 311 311 311 311 312 312 311 311 311 311 311 312 302 299 300 303 301 296 277 269 286 294 293 293 295 295 298 298 301 299 293 292 290 294 292 288 290 290 290 287 284 282 281 274
313 313 311 311 311 312 311 311 311 312 311 310 311 311 309 303 297 302 301 295 279 274 288 286 289 293 291 290 292 294 292 292 289 279 280 287 288 291 292 287 289 287 282 271 273 271 273
313 312 312 311 311 312 311 311 311 311 311 310 311 310 306 303 302 301 296 285 275 285 286 293 292 292 288 291 291 291 289 286 291 286 279 276 275 288 292 287 285 284 281 274 270 270 273
312 311 311 311 311 312 311 310 310 310 310 309 307 298 299 302 303 300 289 279 278 283 289 289 291 287 286 291 290 290 289 288 289 289 280 279 278 290 291 291 288 284 280 284 277 276 274
312 312 311 311 312 312 311 310 311 310 310 308 295 296 298 302 301 295 285 282 284 291 293 291 283 287 283 286 286 286 287 291 291 294 291 286 279 288 290 291 289 285 288 280 278 273 273
312 313 312 312 312 312 311 310 310 310 311 307 296 294 300 302 299 289 280 281 289 293 293 289 286 284 284 284 285 284 285 289 293 291 292 290 284 283 288 285 282 284 282 283 281 278 275
312 312 312 312 312 312 311 311 310 310 309 302 295 286 299 300 288 285 281 288 295 292 293 292 290 288 285 286 285 285 285 288 294 294 288 289 285 279 281 288 289 286 283 283 278 277 278
313 311 311 311 311 312 311 311 310 309 308 295 292 291 299 296 280 281 288 290 292 291 291 291 289 290 289 286 284 285 288 293 294 292 289 289 283 275 280 283 285 283 285 284 282 280 278
314 312 310 310 310 311 311 310 310 309 308 296 292 286 291 290 288 287 285 287 287 292 291 291 290 290 288 286 288 284 286 292 293 292 298 294 284 279 275 278 282 281 283 284 283 276 278
314 313 311 309 310 309 311 310 310 309 308 297 290 285 288 284 286 285 286 289 286 286 290 290 287 287 286 283 284 284 287 288 292 295 290 289 283 280 281 282 284 283 283 284 282 280 279
313 314 312 310 309 309 310 310 310 309 307 293 289 289 288 286 286 284 286 285 286 286 286 285 285 287 286 284 284 285 287 285 285 289 287 287 281 280 278 281 281 280 283 284 283 283 282
312 312 313 311 310 309 309 310 310 309 302 291 291 291 290 288 285 283 284 285 287 288 288 288 287 285 286 286 288 286 287 287 288 287 285 284 281 279 277 279 279 277 279 282 284 285 285
311 311 312 313 311 309 309 309 309 309 301 294 291 291 288 284 284 285 286 287 287 287 286 287 288 286 288 290 288 287 286 286 286 285 285 282 280 278 274 275 270 279 281 282 285 286 286
311 311 312 312 312 310 309 309 309 309 305 293 291 291 287 283 284 285 287 287 286 286 286 287 288 289 289 286 282 280 279 279 281 284 284 283 280 276 273 272 276 278 281 281 281 281 288
312 311 311 311 312 310 309 309 308 308 306 294 291 292 289 285 284 286 287 286 284 281 283 286 289 290 288 283 280 275 275 275 277 278 283 283 281 278 275 273 271 277 281 284 282 277 283
312 311 310 311 311 311 309 309 308 307 306 296 293 292 290 286 287 286 285 286 286 283 283 284 285 286 286 280 279 276 275 279 276 276 276 278 277 275 275 274 277 280 283 284 275 277 283
312 311 310 310 310 312 310 310 308 307 306 297 293 293 291 287 287 289 290 286 286 285 283 285 285 285 283 280 279 278 276 277 275 277 277 277 274 274 275 273 272 284 284 280 282 283 284
312 311 310 310 310 311 311 310 309 307 306 299 293 295 294 289 289 290 290 289 289 288 287 286 284 285 285 281 279 278 278 275 275 274 277 276 278 277 278 278 283 284 283 285 285 285 284
Wind_Speed
8 10 11 9 11 7 7 8 8 8 8 10 11 12 13 14 14 16 18 17 13 9 8 8 5 14 6 3 3 4 11 10 7 3 4 4 5 6 6 5 4 2 3 3 4 7 6
8 10 11 10 10 9 6 8 9 8 8 9 10 12 12 13 16 16 16 13 17 6 5 3 11 4 1 3 4 7 11 9 10 9 9 1 6 4 6 6 3 3 3 3 6 5 6
9 8 10 11 10 9 8 8 9 9 9 10 10 11 11 13 14 15 15 10 14 11 0 8 12 4 2 4 4 9 12 2 0 8 5 3 3 3 5 6 4 5 4 3 8 5 5
8 8 8 10 10 10 9 10 9 9 9 10 10 11 11 12 13 12 11 9 8 10 7 5 11 4 2 2 6 6 5 3 4 10 4 9 2 2 6 4 6 4 5 5 4 5 1
7 8 8 9 9 10 10 9 10 9 9 10 11 11 12 14 14 13 9 10 13 11 11 5 2 3 2 3 3 4 4 4 4 7 3 13 2 2 5 7 6 7 4 4 2 5 2
7 8 8 8 9 10 11 10 10 11 10 10 12 12 12 14 15 15 14 11 7 9 6 0 2 3 4 5 4 4 5 2 5 15 7 5 3 3 4 4 11 6 6 3 4 0 6
7 8 8 8 9 9 10 11 11 11 11 12 12 12 13 14 15 15 4 3 4 4 8 5 4 3 2 6 3 5 3 3 5 5 2 7 3 6 8 5 8 8 7 7 2 1 4
8 7 8 9 9 9 10 10 11 12 12 12 13 13 12 13 15 11 2 3 2 2 2 9 7 4 2 3 3 6 4 3 2 9 7 5 3 3 7 7 8 6 7 3 3 1 2
8 8 8 8 9 10 10 11 11 12 13 13 13 14 13 12 12 3 2 2 1 6 3 4 4 4 5 6 4 6 5 2 5 6 7 5 1 5 4 3 7 3 9 5 7 3 4
8 8 8 9 10 10 11 11 12 12 13 13 13 12 12 14 4 2 2 2 3 4 4 7 2 1 3 3 4 4 6 4 3 13 9 7 4 4 5 4 5 5 5 5 11 6 4
7 8 8 10 9 11 11 12 12 12 12 13 12 11 9 5 2 3 1 4 3 2 6 8 3 1 2 3 1 5 3 5 1 7 5 2 3 3 2 4 3 3 7 6 4 6 6
7 7 7 9 10 11 12 12 13 12 12 12 12 9 5 2 1 1 4 5 3 6 2 4 5 2 3 4 1 4 4 1 4 8 0 2 2 3 1 2 2 8 8 9 5 4 3
5 7 8 8 10 10 12 13 13 13 12 10 10 7 2 2 2 4 3 3 6 6 2 4 3 3 5 3 4 2 3 4 3 5 3 4 4 5 3 6 4 4 8 4 6 4 6
3 7 8 9 10 10 11 12 13 14 12 10 8 7 3 2 4 5 3 5 9 1 0 1 2 4 4 2 5 2 5 2 3 5 5 4 4 4 6 1 7 2 6 8 8 5 4
1 5 7 9 11 11 12 12 13 13 11 7 4 2 1 1 4 3 4 6 7 5 3 6 2 3 0 2 8 3 3 2 2 2 5 5 4 3 1 2 2 5 2 4 8 3 5
0 4 6 9 11 12 12 13 12 11 10 3 3 1 1 4 4 4 5 2 2 2 2 1 2 1 2 1 2 4 2 3 5 3 2 5 6 2 3 0 4 2 6 4 4 5 3
2 4 5 7 10 11 12 13 13 11 11 4 3 3 2 1 3 4 4 4 1 2 2 4 2 1 0 1 2 2 1 2 2 2 0 3 4 5 2 3 3 2 2 6 4 4 6
5 3 6 8 8 11 12 13 12 12 8 4 2 2 2 2 4 1 2 2 2 1 1 2 2 1 0 3 4 3 3 1 2 1 2 1 4 4 1 0 1 1 2 4 5 3 2
7 4 4 7 8 10 12 13 13 11 6 2 2 2 1 2 3 1 3 1 1 2 1 2 1 2 1 2 2 2 2 1 5 2 4 3 2 4 5 3 2 3 3 4 4 3 4
9 7 4 5 8 9 12 13 13 11 3 3 3 2 3 3 1 6 3 1 1 1 2 2 1 2 2 2 4 3 0 2 3 2 2 2 3 5 7 4 3 3 3 4 4 4 4
9 9 6 1 7 10 12 13 14 13 2 3 3 3 2 2 2 2 3 4 2 1 1 2 3 4 1 2 1 3 1 1 2 4 3 4 3 2 1 1 1 2 4 6 7 3 6
9 9 7 5 3 8 11 12 14 14 8 4 3 3 2 0 2 2 2 3 5 2 0 0 3 4 2 2 1 5 4 2 2 3 3 4 2 2 0 2 3 3 5 7 5 3 6
11 8 9 7 2 7 9 10 13 14 3 2 1 1 4 3 1 3 3 2 3 5 2 2 2 4 4 1 1 2 2 4 3 4 3 2 4 3 3 4 5 7 9 11 6 6 8
12 10 8 8 6 4 7 9 11 13 5 3 1 2 4 2 1 3 1 1 2 0 4 2 3 3 2 3 3 3 7 8 8 7 2 4 4 2 2 3 1 6 2 3 6 4 9
14 12 10 8 8 4 3 6 8 10 8 3 1 3 3 2 1 2 2 3 2 3 3 2 2 1 1 5 4 4 5 3 4 5 6 3 4 3 4 3 7 1 5 6 7 8 14
16 13 11 10 10 7 5 2 5 7 7 4 1 1 3 5 4 1 2 2 3 1 3 2 1 1 5 3 2 3 4 4 2 1 3 4 5 4 2 2 6 4 2 4 3 7 4
17 13 12 10 9 9 7 5 1 4 5 3 1 1 3 3 2 1 2 3 4 3 2 1 1 2 3 2 2 3 3 3 3 5 4 2 3 4 2 3 10 5 3 5 2 6 3
17 15 12 10 10 11 9 7 4 1 4 2 1 0 3 2 2 1 2 2 2 2 4 3 4 2 3 2 2 3 3 5 1 4 6 7 7 5 3 2 8 5 4 7 5 0 3
12 13 12 11 11 11 10 8 7 4 2 2 1 1 1 4 2 1 2 2 1 1 4 1 2 3 5 4 2 3 2 1 3 3 1 3 7 6 9 8 4 6 3 1 4 4 3
Wind_Direction
6 342 355 356 353 7 351 348 341 327 341 331 346 339 341 336 331 329 331 341 349 327 335 330 124 136 106 182 280 355 330 324 289 138 278 175 162 146 157 176 149 176 149 56 357 106 68
1 345 353 356 354 356 350 346 337 333 334 332 336 336 341 338 338 337 331 340 350 321 331 51 125 105 57 217 352 350 327 275 227 123 261 209 197 195 136 163 175 139 107 86 30 64 49
344 347 345 351 350 352 354 354 340 331 335 326 333 338 339 340 345 339 334 341 359 7 232 118 119 56 43 286 354 313 265 186 255 160 216 268 294 182 122 122 152 138 95 61 24 3 93
343 340 343 344 354 354 349 341 346 334 338 324 330 328 331 333 336 336 335 3 351 5 25 155 142 101 272 234 264 287 309 121 119 135 227 295 313 248 121 108 43 68 49 111 335 349 27
328 332 342 343 347 350 346 340 336 333 336 323 321 321 326 330 334 323 292 293 346 337 336 356 76 263 59 314 340 327 350 102 143 112 234 295 263 185 74 103 50 18 142 90 82 6 87
328 328 339 335 336 347 343 337 331 324 332 326 319 321 326 331 331 327 301 265 274 339 334 192 33 34 360 350 309 340 310 359 132 118 320 288 48 88 65 102 181 158 107 56 124 28 38
326 330 327 327 327 340 338 331 329 325 325 322 322 323 326 332 334 338 351 28 27 351 27 21 344 284 312 317 284 349 342 6 39 99 57 328 342 180 162 150 149 125 116 110 353 314 100
324 325 325 325 326 328 328 324 326 324 321 319 318 322 323 327 331 331 54 54 34 195 59 1 8 360 349 332 1 353 359 85 128 133 96 327 251 226 119 117 119 104 117 85 48 24 70
330 326 324 321 322 322 324 321 324 322 321 321 317 317 321 322 323 33 64 68 29 17 65 3 337 325 318 333 36 348 9 321 117 122 143 274 195 120 106 112 108 110 142 173 149 168 58
332 333 329 326 323 322 321 318 317 319 322 322 318 317 321 329 80 300 45 79 28 67 69 8 352 24 318 304 55 345 8 20 33 132 140 261 320 131 106 113 112 124 149 128 129 97 171
333 329 332 327 333 325 321 316 315 321 322 323 321 315 318 306 200 125 158 104 119 68 53 331 328 52 328 16 131 14 14 346 300 118 116 286 11 88 105 175 162 131 120 118 97 91 92
337 331 329 332 334 331 324 321 318 319 321 324 326 306 315 6 27 153 125 106 62 44 324 341 343 21 204 182 102 79 10 289 264 129 292 18 306 57 21 71 79 155 87 51 54 79 40
343 328 333 335 335 335 330 328 324 320 319 325 331 328 248 145 218 146 115 69 42 73 319 349 353 9 82 93 110 183 175 158 156 105 56 24 2 341 25 77 47 85 80 25 17 18 208
355 338 336 337 340 337 336 334 332 327 320 318 321 313 260 207 135 120 58 53 66 305 253 10 284 335 62 123 47 160 157 72 273 79 90 114 347 7 337 65 168 133 124 150 165 173 216
352 329 334 336 342 341 342 341 341 337 327 317 1 7 261 232 140 90 77 52 181 208 198 174 254 303 5 145 133 74 344 42 126 128 128 131 344 306 309 334 80 195 72 161 109 34 71
107 321 335 333 336 341 345 348 351 360 352 19 87 46 349 140 126 74 76 155 183 197 144 136 265 214 65 62 144 125 161 338 351 40 73 179 84 351 302 7 35 105 151 70 5 125 204
164 297 335 338 335 337 346 353 354 352 348 132 65 72 282 129 74 55 104 242 201 214 155 182 262 354 324 67 86 63 347 36 39 290 160 139 100 292 31 28 175 47 53 54 114 116 151
175 290 328 338 343 337 344 353 359 358 0 54 101 50 304 69 50 38 104 202 298 272 185 272 255 139 151 32 47 103 118 1 340 260 128 339 114 111 161 218 118 95 136 136 115 218 64
199 203 300 324 337 340 342 350 358 1 29 120 107 174 9 86 111 331 277 313 13 327 304 304 10 36 9 87 74 31 125 8 21 59 162 190 58 82 3 11 8 224 198 126 108 84 193
206 192 228 316 324 338 343 347 352 354 4 96 95 40 335 56 246 136 162 203 241 253 292 323 290 106 80 59 22 144 175 16 7 123 132 129 95 144 176 198 138 188 188 161 136 116 170
219 207 192 268 320 328 341 346 347 351 351 115 45 236 185 244 316 129 138 167 168 232 300 14 20 25 345 122 105 123 243 91 352 334 44 82 109 107 133 64 185 216 199 185 190 188 160
228 218 204 172 314 323 336 347 345 0 119 80 133 134 18 204 310 132 1 195 173 195 321 311 116 17 355 116 236 198 137 223 177 14 68 5 129 129 281 12 33 275 233 210 216 214 262
223 220 213 204 232 320 332 341 349 2 118 98 293 353 106 315 32 95 225 180 186 129 34 48 142 107 70 20 37 74 79 72 92 136 114 83 116 70 271 348 336 299 218 188 188 205 153
221 217 225 216 218 298 326 341 0 6 54 124 187 107 96 240 160 220 190 136 145 163 159 3 33 113 188 111 127 51 47 62 58 38 58 122 101 79 205 7 344 238 156 197 198 221 212
211 216 214 227 220 221 320 334 358 11 28 88 147 120 127 154 200 335 115 115 98 30 60 101 28 296 5 57 58 41 351 18 19 29 17 49 119 94 128 199 284 242 197 156 166 269 202
209 211 213 231 215 213 161 296 342 7 35 92 89 166 111 120 250 340 143 165 162 139 3 19 27 2 62 79 90 154 205 220 236 343 37 60 71 115 138 199 230 246 200 177 144 284 200
204 206 212 211 223 206 207 180 281 351 21 114 159 166 97 113 261 123 171 181 128 107 128 320 175 79 54 88 128 174 238 168 186 181 173 79 28 162 154 257 287 239 167 147 147 250 153
202 203 206 208 222 208 213 185 183 315 357 115 201 263 122 130 267 80 26 149 84 120 153 193 72 331 59 125 163 218 178 222 133 181 179 168 147 194 112 209 294 162 88 168 222 272 157
202 204 208 206 218 212 203 197 193 185 333 116 109 332 61 100 169 6 108 113 55 351 142 187 197 165 189 104 190 132 204 108 172 263 73 224 186 182 185 213 238 217 214 220 169 159 174